[[{"header":{"parameterUnit":"m.s-1","parameterCategory":1,"la1":30.2991,"la2":30.254,"lo1":-89.0895,"lo2":-89.0444,"dy":0.0017,"dx":0.0017,"nx":28,"ny":28,"refTime":"2024-03-17T09:00:00:Z","depth":0,"parameterNumber":2,"parameterNumberName":"U-component_of_WINDS"},"data":[0,0,0,0,0,0,0,0,0,0,0,0,0,0,0,0,0,0,0,0,0,0,0,0,0,0,0,0,0,0,0,0,0,0,0,0,0,0,0,0,0,0,0,0,0,0,0,0,0,0,0,0,0,0,0,0,0,0,-1.7599,-1.7599,0,-1.7594,-1.7594,-1.7594,-1.7516,-1.7514,-1.7512,-1.751,-1.7507,-1.7508,-1.751,0,0,0,0,0,0,0,0,0,0,0,0,0,-1.7544,-1.7546,-1.7599,-1.7599,-1.7599,-1.7594,-1.7594,-1.7594,-1.7516,-1.7514,-1.7511,-1.7509,-1.7506,-1.7508,-1.751,0,0,0,0,0,0,0,0,0,0,0,0,0,-1.7557,-1.7546,-1.7599,-1.756,-1.7556,-1.7594,-1.7594,-1.7594,-1.7517,-1.7514,-1.7511,-1.7508,-1.7505,-1.7508,-1.7511,-1.7586,0,0,-1.7519,-1.752,0,0,0,0,0,0,0,0,-1.7556,-1.7559,-1.7565,-1.7562,-1.7558,-1.7552,-1.7573,-1.7591,-1.7517,-1.7532,-1.751,-1.7507,-1.7524,-1.7525,-1.7531,-1.7586,-1.7586,-1.7519,-1.752,-1.7522,-1.7522,0,0,0,0,0,0,0,-1.7555,-1.7559,-1.7597,-1.7566,-1.7561,-1.7543,-1.7541,-1.7576,-1.7545,-1.753,-1.7525,-1.7525,-1.7522,-1.7529,-1.753,-1.7586,-1.7519,-1.7521,-1.7523,-1.7524,-1.7705,-1.7708,0,0,0,0,0,0,-1.756,-1.7558,-1.7597,-1.7597,-1.755,-1.7546,-1.7545,-1.7557,-1.7544,-1.7539,-1.7527,-1.7521,-1.7526,-1.7527,-1.753,-1.7619,-1.7522,-1.7524,-1.7526,-1.7702,-1.7706,-1.7709,0,0,0,0,0,0,-1.7559,-1.7564,-1.7597,-1.7576,-1.7579,-1.755,-1.7565,-1.7559,-1.7565,-1.7542,-1.7536,-1.754,-1.7523,-1.7526,-1.7573,-1.7618,-1.7525,-1.7528,-1.7698,-1.7703,-1.7708,-1.7797,0,0,0,0,0,0,-1.7558,-1.7564,-1.7592,-1.7577,-1.758,-1.764,-1.7568,-1.7561,-1.757,-1.7562,-1.7552,-1.7548,-1.7521,-1.757,-1.7576,-1.762,-1.753,-1.7694,-1.77,-1.7706,-1.779,-1.7805,-1.7817,0,0,0,0,0,-1.7556,-1.7617,-1.7594,-1.7599,-1.7614,-1.7643,-1.7645,-1.7612,-1.7574,-1.7602,-1.7587,-1.7548,-1.7612,-1.7575,-1.7581,-1.7627,-1.7691,-1.7698,-1.7706,-1.7784,-1.7802,-1.7817,0,0,0,0,0,0,-1.7638,-1.7615,-1.7588,-1.7646,-1.7647,-1.763,-1.7664,-1.7632,-1.7644,-1.7636,-1.7595,-1.7594,-1.7648,-1.7642,-1.7601,-1.77,-1.7645,-1.7654,-1.7702,-1.7719,-1.7732,-1.7733,-1.7532,0,0,0,0,0,-1.7663,-1.7687,-1.7666,-1.772,-1.7721,-1.7693,-1.7704,-1.7679,-1.7678,-1.7679,-1.7667,-1.7669,-1.7689,-1.7703,-1.7721,-1.7789,-1.7786,-1.7823,-1.7837,-1.7848,-1.7856,-1.7893,-1.791,-1.7733,-1.7733,-1.7733,0,0,-1.7715,-1.7705,-1.7723,-1.7736,-1.7733,-1.7761,-1.7694,-1.7725,-1.7745,-1.7683,-1.7727,-1.7719,-1.7718,-1.7777,-1.7802,-1.7773,-1.7904,-1.7857,-1.7866,-1.7868,-1.7903,-1.7919,-1.7934,-1.7738,-1.7737,-1.7736,0,0,-1.7823,-1.7818,-1.7863,-1.7862,-1.7859,-1.784,-1.7851,-1.7839,-1.7831,-1.7874,-1.7829,-1.7853,-1.7888,-1.789,-1.7895,-1.8006,-1.7971,-1.8013,-1.8083,-1.812,-1.8134,-1.8146,-1.8187,-1.8202,-1.8021,-1.8022,-1.8022,0,-1.7889,-1.7927,-1.789,-1.7925,-1.7932,-1.7877,-1.7923,-1.7924,-1.7928,-1.7935,-1.7903,-1.7947,-1.7943,-1.8002,-1.8029,-1.8035,-1.8047,-1.8014,-1.8135,-1.8146,-1.8157,-1.8196,-1.8211,-1.8027,-1.8026,-1.8026,-1.8025,0,-1.8008,-1.8035,-1.8072,-1.8077,-1.8088,-1.8128,-1.8099,-1.8115,-1.8089,-1.8074,-1.812,-1.8113,-1.8128,-1.814,-1.8115,-1.8196,-1.8179,-1.8141,-1.8085,-1.818,-1.8216,-1.823,-1.8034,-1.8032,-1.8031,-1.8029,0,0,-1.8168,-1.8152,-1.8167,-1.8169,-1.8162,-1.8183,-1.8221,-1.8236,-1.8252,-1.8256,-1.8288,-1.832,-1.8286,-1.8292,-1.8267,-1.8299,-1.839,-1.8258,-1.8257,-1.8284,-1.848,-1.851,-1.8527,-1.8366,-1.8369,-1.8371,-1.8481,0,-1.8274,-1.8338,-1.8306,-1.8375,-1.84,-1.8349,-1.8383,-1.8383,-1.837,-1.8391,-1.8377,-1.8401,-1.8352,-1.8356,-1.8386,-1.8373,-1.8429,-1.8364,-1.8397,-1.8399,-1.84,-1.8546,-1.8576,-1.8681,-1.8495,-1.8497,-1.8499,0,-1.8406,-1.8416,-1.8487,-1.8477,-1.8486,-1.8517,-1.8529,-1.8549,-1.8549,-1.8537,-1.8545,-1.8513,-1.8551,-1.8495,-1.8548,-1.8504,-1.8516,-1.8512,-1.8515,-1.8518,-1.8455,-1.8554,-1.8713,-1.8729,-1.852,-1.8518,-1.8517,0,-1.8518,-1.8549,-1.8595,-1.8599,-1.8588,-1.8611,-1.8607,-1.8604,-1.8616,-1.8626,-1.8634,-1.8649,-1.8658,-1.8671,-1.8644,-1.8605,-1.8702,-1.8642,-1.8695,-1.8696,-1.8718,-1.8717,-1.8883,-1.8724,-1.8724,-1.8723,-1.8723,0,-1.864,-1.8686,-1.8646,-1.8675,-1.8725,-1.8689,-1.874,-1.8731,-1.8729,-1.8756,-1.8713,-1.8739,-1.8702,-1.8725,-1.8705,-1.8753,-1.8757,-1.875,-1.8744,-1.8754,-1.8756,-1.8762,-1.8755,-1.8727,-1.8726,-1.8726,-1.8725,0,-1.8773,-1.8748,-1.8796,-1.8782,-1.878,-1.8818,-1.8806,-1.8833,-1.8817,-1.8852,-1.8858,-1.8834,-1.886,-1.8834,-1.8858,-1.8844,-1.8909,-1.8892,-1.8909,-1.8905,-1.8959,-1.8955,-1.9136,-1.9158,-1.8984,-1.8986,-1.8987,0,-1.8853,-1.8887,-1.8877,-1.8892,-1.8891,-1.8916,-1.8928,-1.8894,-1.8908,-1.8911,-1.8938,-1.896,-1.8975,-1.9019,-1.9004,-1.9023,-1.9007,-1.9069,-1.9009,-1.9019,-1.9009,-1.9008,-1.9012,-1.9081,-1.9083,-1.9085,-1.9086,0,-1.8999,-1.8985,-1.9003,-1.9018,-1.9033,-1.9043,-1.9049,-1.9064,-1.9029,-1.9047,-1.9073,-1.9085,-1.911,-1.9132,-1.9147,-1.9144,-1.9111,-1.9105,-1.9118,-1.913,-1.9139,-1.9136,-1.8944,-1.9101,-1.91,-1.9099,-1.9098,-1.9097,-1.9109,-1.9138,-1.9135,-1.9157,-1.9159,-1.9166,-1.9191,-1.9179,-1.9199,-1.9216,-1.9195,-1.9227,-1.9227,-1.9243,-1.9244,-1.927,-1.9244,-1.9262,-1.9268,-1.9273,-1.9282,-1.9134,-1.9272,-1.9271,-1.9271,-1.9271,-1.927,0,-1.9254,-1.925,-1.927,-1.9281,-1.9299,-1.9264,-1.927,-1.9288,-1.9316,-1.9319,-1.9335,-1.9366,-1.9388,-1.9375,-1.9394,-1.9417,-1.9402,-1.9424,-1.9422,-1.9423,-1.9303,-1.929,-1.9435,-1.9435,-1.9435,-1.9435,-1.9435,-1.9435,-1.9331,-1.9378,-1.9364,-1.9412,-1.9408,-1.9438,-1.9445,-1.9452,-1.9454,-1.949,-1.9508,-1.9499,-1.9496,-1.9515,-1.9534,-1.953,-1.954,-1.9567,-1.9558,-1.9447,-1.9431,-1.9415,-1.9403,-1.9569,-1.957,-1.9675,-1.9676,-1.9677]},{"header":{"parameterUnit":"m.s-1","parameterCategory":1,"la1":30.2991,"la2":30.254,"lo1":-89.0895,"lo2":-89.0444,"dy":0.0017,"dx":0.0017,"nx":28,"ny":28,"refTime":"2024-03-17T09:00:00:Z","depth":0,"parameterNumber":3,"parameterNumberName":"V-component_of_WINDS"},"data":[0,0,0,0,0,0,0,0,0,0,0,0,0,0,0,0,0,0,0,0,0,0,0,0,0,0,0,0,0,0,0,0,0,0,0,0,0,0,0,0,0,0,0,0,0,0,0,0,0,0,0,0,0,0,0,0,0,0,0.1369,0.1369,0,0.1328,0.1328,0.1328,0.1323,0.1324,0.1324,0.1325,0.1281,0.128,0.1278,0,0,0,0,0,0,0,0,0,0,0,0,0,0.1443,0.1442,0.1369,0.1369,0.1368,0.1329,0.1328,0.1327,0.1323,0.1324,0.1324,0.1325,0.1282,0.128,0.1278,0,0,0,0,0,0,0,0,0,0,0,0,0,0.1407,0.1441,0.1369,0.1362,0.1361,0.1329,0.1328,0.1327,0.1323,0.1324,0.1325,0.1325,0.1282,0.128,0.1278,0.125,0,0,0.127,0.1269,0,0,0,0,0,0,0,0,0.1409,0.1405,0.1363,0.1362,0.1361,0.1332,0.1338,0.1301,0.1323,0.1337,0.1325,0.1326,0.1297,0.1294,0.1285,0.1248,0.1246,0.127,0.1269,0.1268,0.1267,0,0,0,0,0,0,0,0.1412,0.1406,0.1353,0.1363,0.1361,0.136,0.1355,0.1331,0.1314,0.1336,0.1336,0.1331,0.1297,0.1287,0.1284,0.1246,0.127,0.1268,0.1267,0.1266,0.1184,0.1184,0,0,0,0,0,0,0.1416,0.1408,0.1354,0.1352,0.1387,0.1358,0.1353,0.134,0.1314,0.1311,0.1331,0.1331,0.1291,0.1286,0.1282,0.1247,0.1268,0.1266,0.1264,0.1185,0.1184,0.1183,0,0,0,0,0,0,0.1418,0.1411,0.1356,0.138,0.1373,0.1356,0.1342,0.1339,0.1329,0.131,0.1307,0.1324,0.1291,0.1285,0.1258,0.1246,0.1265,0.1262,0.1186,0.1185,0.1184,0.1179,0,0,0,0,0,0,0.142,0.1412,0.1401,0.138,0.1372,0.1333,0.1341,0.1338,0.1326,0.1326,0.1303,0.13,0.1291,0.1262,0.1256,0.1243,0.1261,0.1187,0.1185,0.1184,0.118,0.1178,0.1176,0,0,0,0,0,0.1422,0.1401,0.1401,0.1394,0.1358,0.1333,0.1328,0.1319,0.1325,0.1314,0.1302,0.13,0.1249,0.1259,0.1252,0.1239,0.1188,0.1186,0.1184,0.1181,0.1178,0.1176,0,0,0,0,0,0,0.1421,0.1398,0.1398,0.1369,0.1353,0.1332,0.1318,0.1316,0.1297,0.1298,0.1287,0.1282,0.1255,0.1245,0.1256,0.1211,0.1219,0.1216,0.1218,0.1216,0.1214,0.1216,0.1259,0,0,0,0,0,0.1418,0.1399,0.138,0.1357,0.1349,0.1335,0.1323,0.1318,0.13,0.1293,0.1279,0.1262,0.1241,0.1228,0.1209,0.1179,0.1173,0.1166,0.1164,0.1163,0.1159,0.1142,0.1139,0.1178,0.1178,0.1178,0,0,0.141,0.1395,0.1384,0.1356,0.1343,0.1323,0.1329,0.1308,0.1293,0.129,0.1263,0.1252,0.1232,0.1204,0.119,0.1194,0.1148,0.116,0.1159,0.1157,0.114,0.1136,0.1133,0.1177,0.1177,0.1177,0,0,0.1385,0.1373,0.1352,0.1339,0.1319,0.131,0.1305,0.1285,0.1277,0.1251,0.1248,0.123,0.1196,0.1181,0.117,0.1141,0.1139,0.1135,0.1123,0.1107,0.1103,0.1101,0.1089,0.1085,0.1132,0.1132,0.1132,0,0.1378,0.1349,0.1341,0.132,0.1308,0.1305,0.1283,0.1271,0.1245,0.1237,0.1241,0.1198,0.1185,0.1152,0.1145,0.1136,0.113,0.1137,0.1105,0.1102,0.1099,0.1088,0.1084,0.1132,0.1132,0.1132,0.1132,0,0.134,0.132,0.1305,0.1281,0.1268,0.1246,0.1235,0.1222,0.1218,0.1209,0.1182,0.1165,0.1142,0.1135,0.113,0.1102,0.1104,0.1107,0.1114,0.1095,0.1084,0.108,0.1131,0.1131,0.1132,0.1132,0,0,0.1312,0.1285,0.128,0.1269,0.1247,0.1231,0.121,0.1188,0.1176,0.116,0.1141,0.1112,0.1115,0.1102,0.1096,0.1082,0.1059,0.1086,0.1085,0.108,0.1025,0.1022,0.1017,0.1058,0.1057,0.1057,0.1026,0,0.1284,0.1246,0.1239,0.1206,0.1187,0.1185,0.1166,0.1151,0.1142,0.1124,0.1114,0.1093,0.1099,0.1091,0.1077,0.1065,0.1047,0.1067,0.1039,0.1038,0.1043,0.1012,0.1008,0.098,0.1022,0.1021,0.1021,0,0.1246,0.1228,0.1193,0.1175,0.1166,0.115,0.1129,0.1113,0.1095,0.1089,0.1075,0.1071,0.1049,0.1059,0.1027,0.1041,0.1029,0.1022,0.1021,0.1016,0.1027,0.1005,0.0971,0.0966,0.1015,0.1015,0.1015,0,0.1227,0.1195,0.117,0.1161,0.1139,0.1127,0.1117,0.11,0.1088,0.107,0.1061,0.1041,0.1029,0.1013,0.1004,0.1013,0.0973,0.0982,0.0966,0.0966,0.0956,0.0957,0.0918,0.0952,0.0952,0.0952,0.0952,0,0.1196,0.1174,0.1161,0.1145,0.1121,0.1114,0.109,0.108,0.1065,0.1047,0.1045,0.1028,0.1017,0.0999,0.0992,0.0966,0.0961,0.0955,0.0953,0.0954,0.0955,0.0945,0.0946,0.0951,0.0951,0.0951,0.0952,0,0.117,0.116,0.1133,0.1114,0.1109,0.1092,0.1076,0.1061,0.1052,0.103,0.1024,0.101,0.0988,0.0978,0.0951,0.0946,0.0916,0.0916,0.0922,0.0921,0.0905,0.0906,0.0857,0.085,0.089,0.089,0.089,0,0.1149,0.1132,0.1113,0.1101,0.1091,0.1072,0.1059,0.1051,0.1038,0.1017,0.1004,0.0982,0.0964,0.0929,0.0917,0.0896,0.0894,0.0879,0.0891,0.0893,0.0892,0.0893,0.089,0.0876,0.0876,0.0875,0.0875,0,0.1113,0.111,0.1092,0.1072,0.1057,0.1041,0.1026,0.1016,0.1006,0.0991,0.0969,0.0955,0.0928,0.0906,0.0884,0.0874,0.0872,0.0872,0.0867,0.0867,0.087,0.0866,0.0914,0.0872,0.0873,0.0873,0.0873,0.0873,0.1088,0.1073,0.1057,0.1037,0.1025,0.101,0.0995,0.0985,0.0967,0.0944,0.0941,0.0917,0.09,0.0871,0.086,0.0841,0.0844,0.0837,0.0835,0.0833,0.0831,0.0875,0.0837,0.0837,0.0837,0.0837,0.0837,0,0.1051,0.1041,0.1023,0.1001,0.0985,0.0987,0.097,0.0956,0.0936,0.092,0.0903,0.0878,0.0857,0.0843,0.0821,0.0809,0.0807,0.0803,0.0803,0.08,0.083,0.0836,0.0805,0.0805,0.0805,0.0805,0.0805,0.0805,0.103,0.1004,0.0999,0.0967,0.0957,0.0934,0.0924,0.091,0.0898,0.087,0.0853,0.0844,0.083,0.0807,0.0788,0.0784,0.0776,0.0771,0.0767,0.0795,0.0798,0.0801,0.0807,0.077,0.077,0.0739,0.0738,0.0738]}]]